Time,TemperatureF,DewpointF,PressureIn,WindDirection,WindDirectionDegrees,WindSpeedMPH,WindSpeedGustMPH,Humidity,HourlyPrecipIn,Conditions,Clouds,dailyrainin,SoftwareType,DateUTC
2013-02-05 00:01:00,62.0,53.0,-100.00,SSE,155,0.0,6.0,73,0.00,,,0.00,,2013-02-05 10:01:00,
2013-02-05 00:11:00,63.0,52.0,-100.00,ESE,105,2.0,12.0,68,0.00,,,0.00,,2013-02-05 10:11:00,
2013-02-05 00:32:00,63.0,52.0,-100.00,ESE,105,2.0,12.0,68,0.00,,,0.00,,2013-02-05 10:32:00,
2013-02-05 00:42:00,63.0,52.0,-100.00,ESE,105,2.0,12.0,68,0.00,,,0.00,,2013-02-05 10:42:00,
2013-02-05 00:52:00,63.0,52.0,-100.00,ESE,105,2.0,12.0,68,0.00,,,0.00,,2013-02-05 10:52:00,
2013-02-05 01:01:00,63.0,52.0,-100.00,ESE,105,2.0,12.0,68,0.00,,,0.00,,2013-02-05 11:01:00,
2013-02-05 01:11:00,62.0,56.0,-100.00,WSW,249,0.0,4.0,82,0.00,,,0.00,,2013-02-05 11:11:00,
2013-02-05 01:32:00,62.0,56.0,-100.00,WSW,249,0.0,4.0,82,0.00,,,0.00,,2013-02-05 11:32:00,
2013-02-05 01:42:00,62.0,56.0,-100.00,WSW,249,0.0,4.0,82,0.00,,,0.00,,2013-02-05 11:42:00,
2013-02-05 01:52:00,62.0,56.0,-100.00,WSW,249,0.0,4.0,82,0.00,,,0.00,,2013-02-05 11:52:00,
2013-02-05 02:01:00,62.0,56.0,-100.00,WSW,249,0.0,4.0,82,0.00,,,0.00,,2013-02-05 12:01:00,
2013-02-05 02:11:00,62.0,55.0,-100.00,NE,37,0.0,0.0,79,0.00,,,0.00,,2013-02-05 12:11:00,
2013-02-05 02:32:00,62.0,55.0,-100.00,NE,37,0.0,0.0,79,0.00,,,0.00,,2013-02-05 12:32:00,
2013-02-05 02:42:00,62.0,55.0,-100.00,NE,37,0.0,0.0,79,0.00,,,0.00,,2013-02-05 12:42:00,
2013-02-05 02:52:00,62.0,55.0,-100.00,NE,37,0.0,0.0,79,0.00,,,0.00,,2013-02-05 12:52:00,
2013-02-05 03:01:00,62.0,55.0,-100.00,NE,37,0.0,0.0,79,0.00,,,0.00,,2013-02-05 13:01:00,
2013-02-05 03:11:00,60.0,54.0,-100.00,East,89,0.0,5.0,80,0.00,,,0.00,,2013-02-05 13:11:00,
2013-02-05 03:32:00,60.0,54.0,-100.00,East,89,0.0,5.0,80,0.00,,,0.00,,2013-02-05 13:32:00,
2013-02-05 03:42:00,60.0,54.0,-100.00,East,89,0.0,5.0,80,0.00,,,0.00,,2013-02-05 13:42:00,
2013-02-05 03:52:00,60.0,54.0,-100.00,East,89,0.0,5.0,80,0.00,,,0.00,,2013-02-05 13:52:00,
2013-02-05 04:01:00,60.0,54.0,-100.00,East,89,0.0,5.0,80,0.00,,,0.00,,2013-02-05 14:01:00,
2013-02-05 04:11:00,61.0,52.0,-100.00,ESE,108,2.0,8.0,72,0.00,,,0.00,,2013-02-05 14:11:00,
2013-02-05 04:42:00,61.0,52.0,-100.00,ESE,108,2.0,8.0,72,0.00,,,0.00,,2013-02-05 14:42:00,
2013-02-05 04:52:00,61.0,52.0,-100.00,ESE,108,2.0,8.0,72,0.00,,,0.00,,2013-02-05 14:52:00,
2013-02-05 05:01:00,61.0,52.0,-100.00,ESE,108,2.0,8.0,72,0.00,,,0.00,,2013-02-05 15:01:00,
2013-02-05 05:11:00,61.0,56.0,-100.00,SSE,151,0.0,5.0,85,0.00,,,0.00,,2013-02-05 15:11:00,
2013-02-05 05:32:00,61.0,56.0,-100.00,SSE,151,0.0,5.0,85,0.00,,,0.00,,2013-02-05 15:32:00,
2013-02-05 05:42:00,61.0,56.0,-100.00,SSE,151,0.0,5.0,85,0.00,,,0.00,,2013-02-05 15:42:00,
2013-02-05 05:52:00,61.0,56.0,-100.00,SSE,151,0.0,5.0,85,0.00,,,0.00,,2013-02-05 15:52:00,
2013-02-05 06:01:00,61.0,56.0,-100.00,SSE,151,0.0,5.0,85,0.00,,,0.00,,2013-02-05 16:01:00,
2013-02-05 06:11:00,61.0,57.0,-100.00,SSE,161,0.0,3.0,86,0.00,,,-99.99,,2013-02-05 16:11:00,
2013-02-05 06:33:00,61.0,57.0,-100.00,SSE,161,0.0,3.0,86,0.00,,,-99.99,,2013-02-05 16:33:00,
2013-02-05 06:42:00,61.0,57.0,-100.00,SSE,161,0.0,3.0,86,0.00,,,-99.99,,2013-02-05 16:42:00,
2013-02-05 06:52:00,61.0,57.0,-100.00,SSE,161,0.0,3.0,86,0.00,,,-99.99,,2013-02-05 16:52:00,
2013-02-05 07:01:00,61.0,57.0,-100.00,SSE,161,0.0,3.0,86,0.00,,,-99.99,,2013-02-05 17:01:00,
2013-02-05 07:11:00,60.0,52.0,-100.00,ESE,103,0.0,4.0,74,0.00,,,0.00,,2013-02-05 17:11:00,
2013-02-05 07:32:00,60.0,52.0,-100.00,ESE,103,0.0,4.0,74,0.00,,,0.00,,2013-02-05 17:32:00,
2013-02-05 07:42:00,60.0,52.0,-100.00,ESE,103,0.0,4.0,74,0.00,,,0.00,,2013-02-05 17:42:00,
2013-02-05 07:52:00,60.0,52.0,-100.00,ESE,103,0.0,4.0,74,0.00,,,0.00,,2013-02-05 17:52:00,
2013-02-05 08:01:00,60.0,52.0,-100.00,ESE,103,0.0,4.0,74,0.00,,,0.00,,2013-02-05 18:01:00,
2013-02-05 08:11:00,62.0,56.0,-100.00,NNE,23,0.0,4.0,82,0.00,,,-99.99,,2013-02-05 18:11:00,
2013-02-05 08:32:00,62.0,56.0,-100.00,NNE,23,0.0,4.0,82,0.00,,,-99.99,,2013-02-05 18:32:00,
2013-02-05 08:42:00,62.0,56.0,-100.00,NNE,23,0.0,4.0,82,0.00,,,-99.99,,2013-02-05 18:42:00,
2013-02-05 08:52:00,62.0,56.0,-100.00,NNE,23,0.0,4.0,82,0.00,,,-99.99,,2013-02-05 18:52:00,
2013-02-05 09:02:00,62.0,56.0,-100.00,NNE,23,0.0,4.0,82,0.00,,,-99.99,,2013-02-05 19:02:00,
2013-02-05 09:11:00,66.0,60.0,-100.00,SSW,204,0.0,4.0,80,0.00,,,0.00,,2013-02-05 19:11:00,
2013-02-05 09:42:00,66.0,60.0,-100.00,SSW,204,0.0,4.0,80,0.00,,,0.00,,2013-02-05 19:42:00,
2013-02-05 09:52:00,66.0,60.0,-100.00,SSW,204,0.0,4.0,80,0.00,,,0.00,,2013-02-05 19:52:00,
2013-02-05 10:01:00,66.0,60.0,-100.00,SSW,204,0.0,4.0,80,0.00,,,0.00,,2013-02-05 20:01:00,
2013-02-05 10:11:00,66.0,60.0,-100.00,South,183,1.0,5.0,80,0.00,,,-99.99,,2013-02-05 20:11:00,
2013-02-05 10:32:00,66.0,60.0,-100.00,South,183,1.0,5.0,80,0.00,,,-99.99,,2013-02-05 20:32:00,
2013-02-05 10:42:00,66.0,60.0,-100.00,South,183,1.0,5.0,80,0.00,,,-99.99,,2013-02-05 20:42:00,
2013-02-05 10:52:00,66.0,60.0,-100.00,South,183,1.0,5.0,80,0.00,,,-99.99,,2013-02-05 20:52:00,
2013-02-05 11:01:00,66.0,60.0,-100.00,South,183,1.0,5.0,80,0.00,,,-99.99,,2013-02-05 21:01:00,
2013-02-05 11:11:00,67.0,62.0,-100.00,SSW,212,0.0,5.0,83,0.00,,,0.00,,2013-02-05 21:11:00,
2013-02-05 11:42:00,67.0,62.0,-100.00,SSW,212,0.0,5.0,83,0.00,,,0.00,,2013-02-05 21:42:00,
2013-02-05 11:52:00,67.0,62.0,-100.00,SSW,212,0.0,5.0,83,0.00,,,0.00,,2013-02-05 21:52:00,
2013-02-05 12:01:00,67.0,62.0,-100.00,SSW,212,0.0,5.0,83,0.00,,,0.00,,2013-02-05 22:01:00,
2013-02-05 12:11:00,67.0,63.0,-100.00,SSW,209,0.0,5.0,88,0.00,,,0.00,,2013-02-05 22:11:00,
2013-02-05 12:32:00,67.0,63.0,-100.00,SSW,209,0.0,5.0,88,0.00,,,0.00,,2013-02-05 22:32:00,
2013-02-05 12:42:00,67.0,63.0,-100.00,SSW,209,0.0,5.0,88,0.00,,,0.00,,2013-02-05 22:42:00,
2013-02-05 12:52:00,67.0,63.0,-100.00,SSW,209,0.0,5.0,88,0.00,,,0.00,,2013-02-05 22:52:00,
2013-02-05 13:01:00,67.0,63.0,-100.00,SSW,209,0.0,5.0,88,0.00,,,0.00,,2013-02-05 23:01:00,
2013-02-05 13:11:00,68.0,61.0,-100.00,North,352,0.0,6.0,79,0.00,,,0.00,,2013-02-05 23:11:00,
2013-02-05 13:32:00,68.0,61.0,-100.00,North,352,0.0,6.0,79,0.00,,,0.00,,2013-02-05 23:32:00,
2013-02-05 13:42:00,68.0,61.0,-100.00,North,352,0.0,6.0,79,0.00,,,0.00,,2013-02-05 23:42:00,
2013-02-05 13:52:00,68.0,61.0,-100.00,North,352,0.0,6.0,79,0.00,,,0.00,,2013-02-05 23:52:00,
2013-02-05 14:01:00,68.0,61.0,-100.00,North,352,0.0,6.0,79,0.00,,,0.00,,2013-02-06 00:01:00,
2013-02-05 14:11:00,73.0,64.0,-100.00,NNE,16,0.0,5.0,73,0.00,,,0.00,,2013-02-06 00:11:00,
2013-02-05 14:32:00,73.0,64.0,-100.00,NNE,16,0.0,5.0,73,0.00,,,0.00,,2013-02-06 00:32:00,
2013-02-05 14:42:00,73.0,64.0,-100.00,NNE,16,0.0,5.0,73,0.00,,,0.00,,2013-02-06 00:42:00,
2013-02-05 14:52:00,73.0,64.0,-100.00,NNE,16,0.0,5.0,73,0.00,,,0.00,,2013-02-06 00:52:00,
2013-02-05 15:01:00,73.0,64.0,-100.00,NNE,16,0.0,5.0,73,0.00,,,0.00,,2013-02-06 01:01:00,
2013-02-05 15:11:00,68.0,59.0,-100.00,SSW,199,2.0,6.0,74,0.00,,,0.00,,2013-02-06 01:11:00,
2013-02-05 15:32:00,68.0,59.0,-100.00,SSW,199,2.0,6.0,74,0.00,,,0.00,,2013-02-06 01:32:00,
2013-02-05 15:42:00,68.0,59.0,-100.00,SSW,199,2.0,6.0,74,0.00,,,0.00,,2013-02-06 01:42:00,
2013-02-05 15:53:00,68.0,59.0,-100.00,SSW,199,2.0,6.0,74,0.00,,,0.00,,2013-02-06 01:53:00,
2013-02-05 16:01:00,68.0,59.0,-100.00,SSW,199,2.0,6.0,74,0.00,,,0.00,,2013-02-06 02:01:00,
2013-02-05 16:11:00,65.0,61.0,-100.00,South,180,1.0,5.0,86,0.01,,,0.01,,2013-02-06 02:11:00,
2013-02-05 16:42:00,65.0,61.0,-100.00,South,180,1.0,5.0,86,0.01,,,0.01,,2013-02-06 02:42:00,
2013-02-05 16:52:00,65.0,61.0,-100.00,South,180,1.0,5.0,86,0.01,,,0.01,,2013-02-06 02:52:00,
2013-02-05 17:02:00,65.0,61.0,-100.00,South,180,1.0,5.0,86,0.01,,,0.01,,2013-02-06 03:02:00,
2013-02-05 17:11:00,70.0,61.0,-100.00,NNE,14,0.0,7.0,74,0.00,,,0.01,,2013-02-06 03:11:00,
2013-02-05 17:33:00,70.0,61.0,-100.00,NNE,14,0.0,7.0,74,0.00,,,0.01,,2013-02-06 03:33:00,
2013-02-05 17:42:00,70.0,61.0,-100.00,NNE,14,0.0,7.0,74,0.00,,,0.01,,2013-02-06 03:42:00,
2013-02-05 17:52:00,70.0,61.0,-100.00,NNE,14,0.0,7.0,74,0.00,,,0.01,,2013-02-06 03:52:00,
2013-02-05 18:01:00,70.0,61.0,-100.00,NNE,14,0.0,7.0,74,0.00,,,0.01,,2013-02-06 04:01:00,
2013-02-05 18:11:00,70.0,60.0,-100.00,ENE,78,0.0,5.0,70,0.00,,,0.01,,2013-02-06 04:11:00,
2013-02-05 18:42:00,70.0,60.0,-100.00,ENE,78,0.0,5.0,70,0.00,,,0.01,,2013-02-06 04:42:00,
2013-02-05 18:52:00,70.0,60.0,-100.00,ENE,78,0.0,5.0,70,0.00,,,0.01,,2013-02-06 04:52:00,
2013-02-05 19:01:00,70.0,60.0,-100.00,ENE,78,0.0,5.0,70,0.00,,,0.01,,2013-02-06 05:01:00,
2013-02-05 19:11:00,63.0,55.0,-100.00,East,84,0.0,4.0,76,0.00,,,0.01,,2013-02-06 05:11:00,
2013-02-05 19:42:00,63.0,55.0,-100.00,East,84,0.0,4.0,76,0.00,,,0.01,,2013-02-06 05:42:00,
2013-02-05 19:53:00,63.0,55.0,-100.00,East,84,0.0,4.0,76,0.00,,,0.01,,2013-02-06 05:53:00,
2013-02-05 20:01:00,63.0,55.0,-100.00,East,84,0.0,4.0,76,0.00,,,0.01,,2013-02-06 06:01:00,
2013-02-05 20:11:00,63.0,53.0,-100.00,East,81,1.0,8.0,70,0.00,,,0.01,,2013-02-06 06:11:00,
2013-02-05 20:32:00,63.0,53.0,-100.00,East,81,1.0,8.0,70,0.00,,,0.01,,2013-02-06 06:32:00,
2013-02-05 20:42:00,63.0,53.0,-100.00,East,81,1.0,8.0,70,0.00,,,0.01,,2013-02-06 06:42:00,
2013-02-05 20:52:00,63.0,53.0,-100.00,East,81,1.0,8.0,70,0.00,,,0.01,,2013-02-06 06:52:00,
2013-02-05 21:01:00,63.0,53.0,-100.00,East,81,1.0,8.0,70,0.00,,,0.01,,2013-02-06 07:01:00,
2013-02-05 21:11:00,60.0,51.0,-100.00,ESE,106,0.0,7.0,73,0.00,,,0.01,,2013-02-06 07:11:00,
2013-02-05 21:32:00,60.0,51.0,-100.00,ESE,106,0.0,7.0,73,0.00,,,0.01,,2013-02-06 07:32:00,
2013-02-05 21:42:00,60.0,51.0,-100.00,ESE,106,0.0,7.0,73,0.00,,,0.01,,2013-02-06 07:42:00,
2013-02-05 21:52:00,60.0,51.0,-100.00,ESE,106,0.0,7.0,73,0.00,,,0.01,,2013-02-06 07:52:00,
2013-02-05 22:01:00,60.0,51.0,-100.00,ESE,106,0.0,7.0,73,0.00,,,0.01,,2013-02-06 08:01:00,
2013-02-05 22:11:00,60.0,51.0,-100.00,ENE,63,0.0,7.0,72,0.00,,,0.01,,2013-02-06 08:11:00,
2013-02-05 22:42:00,60.0,51.0,-100.00,ENE,63,0.0,7.0,72,0.00,,,0.01,,2013-02-06 08:42:00,
2013-02-05 22:53:00,60.0,51.0,-100.00,ENE,63,0.0,7.0,72,0.00,,,0.01,,2013-02-06 08:53:00,
2013-02-05 23:01:00,60.0,51.0,-100.00,ENE,63,0.0,7.0,72,0.00,,,0.01,,2013-02-06 09:01:00,
2013-02-05 23:11:00,62.0,52.0,-100.00,East,86,1.0,8.0,70,0.00,,,0.01,,2013-02-06 09:11:00,
2013-02-05 23:32:00,62.0,52.0,-100.00,East,86,1.0,8.0,70,0.00,,,0.01,,2013-02-06 09:32:00,
2013-02-05 23:42:00,62.0,52.0,-100.00,East,86,1.0,8.0,70,0.00,,,0.01,,2013-02-06 09:42:00,
2013-02-05 23:52:00,62.0,52.0,-100.00,East,86,1.0,8.0,70,0.00,,,0.01,,2013-02-06 09:52:00,